Flag for Canada Weather past 2 weeks in Trois-Rivieres, Quebec, Canada

Now
65 °F

Mild.


Feels Like: 65 °F
Forecast: 60 / 70 °F
Wind: 6 mph from Southwest

Location: Trois Rivieres

Current Time: Aug 1, 2015 at 9:55:32 AM

Latest Report: Aug 1, 2015 at 9:00 AM


Visibility: N/A

Pressure: 29.65 "Hg

Humidity: 84%

Dew point: 61 °F

Location of Trois-RivieresLocation

Historic Weather in Trois-Rivieres — Graph

°F

Trois-Rivieres temperature yesterday

Maximum temperature yesterday: 78 °F (at 6:00 PM)
Minimum temperature yesterday: 67 °F (at 11:00 PM)
Average temperature yesterday: 72 °F

Past Weeks' High & Low Weather Summary

 TemperatureHumidityPressure
High85 °F (Jul 29, 5:00 PM)100% (Jul 18, 5:00 AM)30.09 "Hg (Jul 18, 5:00 AM)
Low58 °F (Jul 25, 5:00 AM)45% (Jul 17, 3:00 PM)29.48 "Hg (Jul 21, 3:00 PM)
Average69 °F83%29.78 "Hg
* Reported Jul 17 8:00 AM — Aug 1 8:00 AM, Trois-Rivieres, Weather by CustomWeather, © 2015

Note: Actual official high and low records may vary slightly from our data, if they occured in-between our weather recording intervals... More about our weather records

Advertising

Trois-Rivieres weather history for previous 24 hours

 ConditionsComfort  
Time TempWeatherWind HumidityBarometerVisibility
8:00 AM
Sat, Aug 1
64 °FMild.6 mph90%29.65 "HgN/A
7:00 AM63 °FMild.8 mph92%29.65 "HgN/A
6:00 AM63 °FMild.8 mph95%29.64 "HgN/A
5:00 AM63 °FMild.8 mph95%29.64 "HgN/A
4:00 AM62 °FMild.2 mph92%29.64 "HgN/A
3:00 AM63 °FMild.2 mph91%29.65 "HgN/A
2:00 AM64 °FMild.2 mph93%29.64 "HgN/A
1:00 AM67 °FMild.13 mph91%29.63 "HgN/A
12:00 AM67 °FMild.14 mph92%29.65 "HgN/A
11:00 PM
Fri, Jul 31
67 °FMild.7 mph86%29.68 "HgN/A
10:00 PM68 °FMild.9 mph88%29.67 "HgN/A
9:00 PM71 °FMild.12 mph75%29.67 "HgN/A
8:00 PM75 °FMild.13 mph70%29.64 "HgN/A
7:00 PM77 °FMild.15 mph64%29.63 "HgN/A
6:00 PM78 °FWarm.16 mph56%29.63 "HgN/A
5:00 PM78 °FWarm.15 mph57%29.63 "HgN/A
4:00 PM77 °FMild.17 mph59%29.64 "HgN/A
3:00 PM76 °FMild.16 mph59%29.65 "HgN/A
2:00 PM76 °FMild.5 mph53%29.66 "HgN/A
1:00 PM74 °FMild.8 mph58%29.66 "HgN/A
12:00 PM72 °FMild.5 mph75%29.67 "HgN/A
11:00 AM73 °FMild.18 mph72%29.66 "HgN/A
10:00 AM70 °FMild.9 mph78%29.66 "HgN/A
9:00 AM71 °FMild.13 mph78%29.65 "HgN/A
Weather by CustomWeather, © 2015

See weather overviewHow to use our weather pages